Location: ????????
(48.4751°N, 37.6926°E)
Time: 13:20:19
(UTC+00:00)

USA 229 DEB - Pass Details

Date: 20 January 2021
Orbit: 965 x 1247 km, 63.4° (Epoch: 26 February)

Event Time Altitude Azimuth Distance (km) Brightness Sun altitude
Rises 17:52:53 0° 317° (NW) 3,957 7.3 -36.6°
Reaches altitude 10° 17:55:32 10° 314° (NW) 3,035 6.6 -37.0°
Enters shadow 18:01:49 56° 265° (W) 1,389 4.4 -38.0°
